STARLINK-11419, 62883

Orbit data source: Space-Track

STARLINK-11419, 62883 is a payload satellite owned by SpaceX/Seattle (US) in LEO that was launched on Tue, 04 Feb 2025 UTC via an FALCON 9 launch vehicle from the Air Force Eastern Test Range (AFETR). Payload-class satellites include a variety of spacecraft equipped with specific instruments for various scientific and technological missions. These include communications satellites like Starlink; space stations such as the ISS; scientific satellites like the Hubble; Earth observation satellites from companies like Planet Labs, Umbra, and HawkEye 360; GPS; miniature CubeSats for education and research; and military/defense satellites.

Loading next visibility...
Identifier
62883, 2025-024E
Orbit
LEO
Country
Flag of USUS
Related business
Manufacturer
SpaceX/Seattle
Mission
Operational Commercial Communications
Bus & Motor
STARLINK V2MD, Unknown motor
Mass
960 kg wet, ~910 kg dry
Launch date (UTC)
2025-02-04 (10 months ago)
Launch vehicle
FALCON 9
Launch site
Air Force Eastern Test Range (AFETR)
Object type
Payload
Rocket body
Debris
Shape & HBR
Box + 2 Pan, 18.1 m
Radar Cross Section
36.964 m², Large (>1 m²)

Expand to show TLE details & history
Last TLE update: 2 days ago

TLE from 2 days ago
0 STARLINK-11419
1 62883U 25024E   25348.02405325  .00091927  00000-0  71257-3 0  9996
2 62883  43.0006 337.8194 0001388 282.1462  77.9250 15.70821085 49990
Epoch: 2025-12-14T00:34Z
TLE epoch observation values (Epoch: 2025-12-14T00:34:38.200Z)
Latitude
-0.00004°
Longitude
-113.78272°
Altitude
356.125 km
Speed
7.697 km/s
True Right ascension
22h 31m 16s
True Declination
0° 00' 00"
Sunlit
Object was in daylight at epoch
Visualization orbit readout
Latitude
Unknown
Longitude
Unknown
Altitude
Unknown
Speed
Unknown
Apparent Right ascension
Unknown
Apparent Declination
Unknown
Sunlit
N/A
Visualization observer readout
Local Sidereal Time
12:44:55
Azimuth
Unknown
Elevation
Unknown
Doppler factor
Unknown
Orbital elements
Apogee altitude
359.466 km
Perigee altitude
357.596 km
Semi-major axis
6,736.668 km
Eccentricity
0.00014
Inclination
43.0006°
RAAN
337.8194°
Arg. of periapsis
282.1462°
True anomaly
77.94055°
Mean anomaly
77.925°
Eccentric anomaly
77.93278°
Mean motion
3.92532 °/min
Orbital period
91.71 mins
BSTAR
0.00071257
Loading maneuver chart data...
Computing Atmospheric mass density...
Loading historical data...
Loading historical data...
Loading historical data...
Loading historical data...
Loading historical data...
Loading historical data...
Loading historical data...

Documentation

Showing up to 5 results
|